User: anonymous   Login
Location: Unspecified
(0.0000°N, 0.0000°E)
Time: 19:11:37
(UTC+00:00)
Language:

Picosat 3 - Orbit

View from above orbital plane
View from above orbital plane
View from above satellite
View from above satellite

Ground track
Ground track

The orbit data is extracted from the following two-line orbital elements,

1 26091U 00004J   18351.17671926  .00000169  00000-0  60879-4 0  9999
2 26091 100.2114 199.6876 0028895 316.2569  43.6329 14.48970524992987
Epoch (UTC): 17 December 2018 04:14:28
Eccentricity: 0.0028895
inclination: 100.2114°
perigee height: 708 km
apogee height: 749 km
right ascension of ascending node: 199.6876°
argument of perigee: 316.2569°
revolutions per day: 14.48970524
mean anomaly at epoch: 43.6329°
orbit number at epoch: 99298

The dashed part of the orbit path shows where the satellite is in the earth's shadow,  

DLR